• In Germany
  • List of Countries
  • For 7 days
  • Water Temperature
  • Satellite Maps
  • Weather Map
  • Weather Widgets
  • user-avatar
    Login

    Hourly Weather Santa Rita

    Today, 20 August, Sunday

    Time Temperature Precipitation Wind Pressure Humidity
    00:00 +26°C° 0 mm 1 mps 748 mmHg 94%
    01:00 +26°C° 0 mm 1 mps 748 mmHg 94%
    02:00 +24°C° 0 mm 0 mps 748 mmHg 94%
    03:00 +24°C° 0 mm 0 mps 748 mmHg 95%
    04:00 +23°C° 0 mm 0 mps 748 mmHg 95%
    05:00 +24°C° 0 mm 0 mps 748 mmHg 93%
    06:00 +24°C° 0 mm 0 mps 749 mmHg 92%
    07:00 +27°C° 0 mm 1 mps 749 mmHg 90%
    08:00 +27°C° 0.3 mm 0 mps 749 mmHg 83%
    09:00 +28°C° 0.3 mm 0 mps 749 mmHg 76%
    10:00 +30°C° 0.3 mm 0 mps 749 mmHg 70%
    11:00 +33°C° 0.6 mm 1 mps 749 mmHg 66%
    12:00 +33°C° 0.6 mm 1 mps 748 mmHg 62%
    13:00 +34°C° 0.6 mm 1 mps 748 mmHg 58%
    14:00 +33°C° 2 mm 1 mps 747 mmHg 65%
    15:00 +32°C° 2 mm 1 mps 747 mmHg 71%
    16:00 +31°C° 2 mm 1 mps 747 mmHg 78%
    17:00 +30°C° 0.8 mm 1 mps 747 mmHg 82%
    18:00 +29°C° 0.8 mm 1 mps 748 mmHg 85%
    19:00 +27°C° 0.8 mm 1 mps 748 mmHg 88%
    20:00 +27°C° 0.9 mm 2 mps 749 mmHg 89%
    21:00 +27°C° 0.9 mm 2 mps 749 mmHg 90%
    22:00 +27°C° 0.9 mm 2 mps 750 mmHg 91%
    23:00 +26°C° 0.1 mm 2 mps 750 mmHg 92%

    Tomorrow, 21 August, Monday

    Time Temperature Precipitation Wind Pressure Humidity
    00:00 +26°C° 0.1 mm 2 mps 749 mmHg 93%
    01:00 +26°C° 0.1 mm 1 mps 749 mmHg 94%
    02:00 +26°C° 0.1 mm 1 mps 749 mmHg 94%
    03:00 +26°C° 0.1 mm 1 mps 749 mmHg 95%
    04:00 +26°C° 0.1 mm 1 mps 749 mmHg 95%
    05:00 +26°C° 1.6 mm 2 mps 750 mmHg 93%
    06:00 +27°C° 1.6 mm 2 mps 750 mmHg 91%
    07:00 +27°C° 1.6 mm 2 mps 751 mmHg 90%
    08:00 +28°C° 1.4 mm 2 mps 751 mmHg 84%
    09:00 +30°C° 1.4 mm 2 mps 751 mmHg 79%
    10:00 +31°C° 1.4 mm 2 mps 751 mmHg 74%
    11:00 +32°C° 0.1 mm 2 mps 750 mmHg 68%
    12:00 +34°C° 0.1 mm 2 mps 750 mmHg 62%
    13:00 +34°C° 0.1 mm 1 mps 749 mmHg 56%
    14:00 +34°C° 0.5 mm 2 mps 748 mmHg 61%
    15:00 +32°C° 0.5 mm 2 mps 748 mmHg 66%
    16:00 +32°C° 0.5 mm 2 mps 748 mmHg 72%
    17:00 +30°C° 0.7 mm 2 mps 748 mmHg 77%
    18:00 +29°C° 0.7 mm 2 mps 749 mmHg 83%
    19:00 +27°C° 0.7 mm 2 mps 750 mmHg 89%
    20:00 +27°C° 0.1 mm 2 mps 750 mmHg 90%
    21:00 +27°C° 0.1 mm 2 mps 751 mmHg 91%
    22:00 +26°C° 0.1 mm 3 mps 751 mmHg 92%
    23:00 +26°C° 0.3 mm 2 mps 751 mmHg 93%

    Day after tomorrow, 22 August, Tuesday

    Time Temperature Precipitation Wind Pressure Humidity
    00:00 +26°C° 0.3 mm 2 mps 750 mmHg 93%
    01:00 +25°C° 0.3 mm 1 mps 750 mmHg 94%
    02:00 +25°C° 2.3 mm 1 mps 750 mmHg 94%
    03:00 +25°C° 2.3 mm 1 mps 750 mmHg 95%
    04:00 +25°C° 2.3 mm 1 mps 750 mmHg 96%
    05:00 +25°C° 0.3 mm 1 mps 751 mmHg 94%
    06:00 +26°C° 0.3 mm 1 mps 751 mmHg 93%
    07:00 +24°C° 0.3 mm 0 mps 751 mmHg 91%
    08:00 +28°C° 0 mm 1 mps 751 mmHg 84%
    09:00 +29°C° 0 mm 1 mps 752 mmHg 76%
    10:00 +31°C° 0 mm 1 mps 752 mmHg 69%
    11:00 +31°C° 0.4 mm 2 mps 751 mmHg 66%
    12:00 +32°C° 0.4 mm 2 mps 750 mmHg 64%
    13:00 +32°C° 0.4 mm 2 mps 749 mmHg 62%
    14:00 +32°C° 0.3 mm 2 mps 748 mmHg 66%
    15:00 +31°C° 0.3 mm 2 mps 748 mmHg 69%
    16:00 +31°C° 0.3 mm 2 mps 747 mmHg 73%
    17:00 +30°C° 0.1 mm 2 mps 748 mmHg 77%
    18:00 +28°C° 0.1 mm 1 mps 748 mmHg 81%
    19:00 +27°C° 0.1 mm 1 mps 749 mmHg 85%
    20:00 +27°C° 0.2 mm 1 mps 749 mmHg 86%
    21:00 +27°C° 0.2 mm 1 mps 750 mmHg 86%
    22:00 +24°C° 0.2 mm 0 mps 750 mmHg 87%
    23:00 +26°C° 0.4 mm 1 mps 750 mmHg 88%

    23 August, Wednesday

    Time Temperature Precipitation Wind Pressure Humidity
    00:00 +26°C° 0.4 mm 1 mps 749 mmHg 89%
    01:00 +25°C° 0.4 mm 1 mps 749 mmHg 90%
    02:00 +25°C° 0.1 mm 1 mps 749 mmHg 91%
    03:00 +25°C° 0.1 mm 1 mps 749 mmHg 92%
    04:00 +25°C° 0.1 mm 1 mps 749 mmHg 93%
    05:00 +25°C° 0.2 mm 1 mps 749 mmHg 91%
    06:00 +26°C° 0.2 mm 1 mps 750 mmHg 90%
    07:00 +27°C° 0.2 mm 1 mps 750 mmHg 88%
    08:00 +28°C° 0.1 mm 1 mps 750 mmHg 79%
    09:00 +30°C° 0.1 mm 1 mps 750 mmHg 70%
    10:00 +32°C° 0.1 mm 2 mps 750 mmHg 62%
    11:00 +34°C° 0.1 mm 2 mps 749 mmHg 58%
    12:00 +35°C° 0.1 mm 2 mps 748 mmHg 54%
    13:00 +36°C° 0.1 mm 2 mps 747 mmHg 50%
    14:00 +35°C° 0.3 mm 2 mps 747 mmHg 56%
    15:00 +34°C° 0.3 mm 2 mps 746 mmHg 61%
    16:00 +34°C° 0.3 mm 2 mps 746 mmHg 66%
    17:00 +31°C° 0.5 mm 2 mps 746 mmHg 70%
    18:00 +30°C° 0.5 mm 1 mps 747 mmHg 75%
    19:00 +28°C° 0.5 mm 1 mps 748 mmHg 79%
    20:00 +28°C° 1.1 mm 1 mps 748 mmHg 83%
    21:00 +27°C° 1.1 mm 1 mps 748 mmHg 87%
    22:00 +27°C° 1.1 mm 1 mps 749 mmHg 90%
    23:00 +26°C° 0.6 mm 1 mps 748 mmHg 91%

    24 August, Thursday

    Time Temperature Precipitation Wind Pressure Humidity
    00:00 +26°C° 0.6 mm 1 mps 748 mmHg 91%
    01:00 +26°C° 0.6 mm 1 mps 747 mmHg 92%
    02:00 +25°C° 0.4 mm 1 mps 747 mmHg 92%
    03:00 +25°C° 0.4 mm 1 mps 747 mmHg 93%
    04:00 +25°C° 0.4 mm 1 mps 748 mmHg 94%
    05:00 +25°C° 0.3 mm 1 mps 748 mmHg 92%
    06:00 +26°C° 0.3 mm 1 mps 749 mmHg 91%
    07:00 +26°C° 0.3 mm 1 mps 749 mmHg 89%
    08:00 +28°C° 0.8 mm 1 mps 749 mmHg 82%
    09:00 +30°C° 0.8 mm 1 mps 749 mmHg 76%
    10:00 +32°C° 0.8 mm 1 mps 749 mmHg 69%
    11:00 +32°C° 0.4 mm 1 mps 749 mmHg 64%
    12:00 +33°C° 0.4 mm 1 mps 748 mmHg 60%
    13:00 +34°C° 0.4 mm 1 mps 747 mmHg 55%
    14:00 +33°C° 1.6 mm 1 mps 747 mmHg 62%
    15:00 +32°C° 1.6 mm 2 mps 747 mmHg 69%
    16:00 +31°C° 1.6 mm 2 mps 746 mmHg 77%
    17:00 +30°C° 1.5 mm 2 mps 747 mmHg 81%
    18:00 +28°C° 1.5 mm 1 mps 748 mmHg 86%
    19:00 +27°C° 1.5 mm 1 mps 748 mmHg 91%
    20:00 +27°C° 1.1 mm 1 mps 749 mmHg 92%
    21:00 +27°C° 1.1 mm 1 mps 749 mmHg 92%
    22:00 +26°C° 1.1 mm 1 mps 749 mmHg 93%
    23:00 +26°C° 0.1 mm 1 mps 749 mmHg 93%

    25 August, Friday

    Time Temperature Precipitation Wind Pressure Humidity
    00:00 +26°C° 0.1 mm 1 mps 749 mmHg 94%
    01:00 +26°C° 0.1 mm 1 mps 748 mmHg 94%
    02:00 +26°C° 0.1 mm 1 mps 748 mmHg 94%
    03:00 +26°C° 0.1 mm 1 mps 748 mmHg 94%
    04:00 +25°C° 0.1 mm 1 mps 748 mmHg 95%
    05:00 +26°C° 0.9 mm 1 mps 749 mmHg 93%
    06:00 +26°C° 0.9 mm 1 mps 750 mmHg 92%
    07:00 +27°C° 0.9 mm 1 mps 750 mmHg 90%
    08:00 +28°C° 0.6 mm 1 mps 750 mmHg 83%
    09:00 +29°C° 0.6 mm 1 mps 750 mmHg 77%
    10:00 +31°C° 0.6 mm 1 mps 750 mmHg 70%
    11:00 +31°C° 0.1 mm 1 mps 749 mmHg 66%
    12:00 +32°C° 0.1 mm 1 mps 749 mmHg 62%
    13:00 +33°C° 0.1 mm 1 mps 748 mmHg 58%
    14:00 +32°C° 0.3 mm 2 mps 748 mmHg 64%
    15:00 +32°C° 0.3 mm 2 mps 747 mmHg 69%
    16:00 +31°C° 0.3 mm 2 mps 747 mmHg 75%
    17:00 +30°C° 0.8 mm 2 mps 748 mmHg 80%
    18:00 +29°C° 0.8 mm 2 mps 748 mmHg 84%
    19:00 +27°C° 0.8 mm 2 mps 749 mmHg 89%
    20:00 +27°C° 0.5 mm 2 mps 749 mmHg 91%
    21:00 +27°C° 0.5 mm 2 mps 750 mmHg 92%
    22:00 +26°C° 0.5 mm 2 mps 750 mmHg 93%
    23:00 +26°C° 0 mm 1 mps 750 mmHg 94%
    Show more